This demonstration page uses our WeatherBlox Daily Observations layout. Learn more.

Left ArrowRight Arrow

Hourly Observations for October 31, 2020

Temp ( °F °C ) Dew Point ( °F °C ) Humidity (%) Winds ( mph kmh ) Pressure ( in mb ) Visibility ( mi km ) Precip ( " mm )
12:53 am 00:53 Clear 54 12.2 35 1.7 49 49 SE 14 22 30.05 1018 10 16 0.00 0.00
1:53 am 01:53 Clear 52 11.1 34 1.1 50 50 SE 12 19 30.04 1017 10 16 0.00 0.00
2:53 am 02:53 Clear 50 10 34 1.1 54 54 SE 10 17 30.04 1017 10 16 0.00 0.00
3:53 am 03:53 Clear 48 8.9 34 1.1 58 58 SE 9 15 30.02 1017 10 16 0.00 0.00
4:53 am 04:53 Clear 46 7.8 33 0.6 61 61 ESE 6 9 30.02 1017 10 16 0.00 0.00
5:53 am 05:53 Clear 46 7.8 33 0.6 61 61 ESE 6 9 30.02 1017 10 16 0.00 0.00
6:53 am 06:53 Clear 40 4.4 31 -0.6 70 70 NE 3 6 30.05 1018 10 16 0.00 0.00
7:53 am 07:53 Clear 38 3.3 30 -1.1 73 73 NNE 7 11 30.08 1019 10 16 0.00 0.00
8:53 am 08:53 Sunny 41 5 31 -0.6 67 67 N 3 6 30.10 1019 10 16 0.00 0.00
9:53 am 09:53 Sunny 49 9.4 33 0.6 55 55 E 3 6 30.10 1019 10 16 0.00 0.00
10:53 am 10:53 Sunny 57 13.9 35 1.7 44 44 E 3 6 30.11 1020 10 16 0.00 0.00
11:53 am 11:53 Sunny 64 17.8 35 1.7 34 34 Calm 30.09 1019 10 16 0.00 0.00
12:53 pm 12:53 Sunny 71 21.7 34 1.1 26 26 SW 7 11 30.07 1018 10 16 0.00 0.00
1:53 pm 13:53 Sunny 75 23.9 34 1.1 22 22 W 7 11 30.04 1017 10 16 0.00 0.00
2:53 pm 14:53 Sunny 80 26.7 33 0.6 18 18 VRB 7 11 30.01 1016 10 16 0.00 0.00
3:53 pm 15:53 Sunny 83 28.3 31 -0.6 15 15 VRB 5 7 29.99 1016 10 16 0.00 0.00
4:53 pm 16:53 Sunny 84 28.9 29 -1.7 13 13 W 6 9 30.00 1016 10 16 0.00 0.00
5:53 pm 17:53 Sunny 83 28.3 27 -2.8 13 13 NNW 10 17 30.01 1016 10 16 0.00 0.00
6:53 pm 18:53 Sunny 77 25 26 -3.3 15 15 NNW 6 9 30.04 1017 10 16 0.00 0.00
7:53 pm 19:53 Clear 68 20 26 -3.3 21 21 N 7 11 30.08 1019 10 16 0.00 0.00
8:53 pm 20:53 Clear 63 17.2 26 -3.3 25 25 NNW 6 9 30.11 1020 10 16 0.00 0.00
9:53 pm 21:53 Clear 60 15.6 27 -2.8 28 28 NNW 7 11 30.14 1021 10 16 0.00 0.00
10:53 pm 22:53 Clear 61 16.1 29 -1.7 30 30 N 9 15 30.15 1021 10 16 0.00 0.00
11:53 pm 23:53 Clear 59 15 30 -1.1 33 33 N 9 15 30.18 1022 10 16 0.00 0.00

Powered by AerisWeather